TimeEDT,TemperatureF,Dew PointF,Humidity,Sea Level PressureIn,VisibilityMPH,Wind Direction,Wind SpeedMPH,Gust SpeedMPH,PrecipitationIn,Events,Conditions,WindDirDegrees,DateUTC
12:56 AM,50.0,45.0,83,30.24,10.0,Calm,Calm,-,N/A,,Scattered Clouds,0,2012-10-09 04:56:00
1:56 AM,51.1,45.0,80,30.22,10.0,North,4.6,-,N/A,,Overcast,10,2012-10-09 05:56:00
2:56 AM,52.0,44.1,74,30.21,10.0,Calm,Calm,-,N/A,,Overcast,0,2012-10-09 06:56:00
3:56 AM,53.1,46.0,77,30.21,10.0,Calm,Calm,-,N/A,,Overcast,0,2012-10-09 07:56:00
4:56 AM,54.0,46.9,77,30.20,10.0,Variable,4.6,-,N/A,,Overcast,0,2012-10-09 08:56:00
5:56 AM,55.0,48.9,80,30.20,10.0,Variable,4.6,-,N/A,,Overcast,0,2012-10-09 09:56:00
6:56 AM,55.9,48.9,77,30.19,10.0,NNE,5.8,-,N/A,,Overcast,30,2012-10-09 10:56:00
7:25 AM,55.4,50.0,82,30.19,10.0,NNE,6.9,-,N/A,,Overcast,30,2012-10-09 11:25:00
7:56 AM,55.0,50.0,83,30.19,10.0,Variable,4.6,-,N/A,,Overcast,0,2012-10-09 11:56:00
8:31 AM,55.4,51.8,88,30.19,10.0,NNE,4.6,-,N/A,,Overcast,20,2012-10-09 12:31:00
8:56 AM,55.9,51.1,84,30.20,10.0,Variable,6.9,-,N/A,,Overcast,0,2012-10-09 12:56:00
9:29 AM,55.4,51.8,88,30.20,4.0,NNE,4.6,-,0.01,Rain,Light Rain,20,2012-10-09 13:29:00
9:56 AM,55.9,53.1,90,30.19,10.0,Variable,6.9,-,0.01,,Overcast,0,2012-10-09 13:56:00
10:56 AM,55.9,52.0,87,30.19,8.0,Variable,5.8,-,N/A,,Overcast,0,2012-10-09 14:56:00
11:07 AM,55.4,53.6,94,30.18,10.0,Variable,5.8,-,N/A,,Overcast,0,2012-10-09 15:07:00
11:36 AM,57.2,53.6,88,30.18,10.0,Variable,4.6,-,N/A,,Overcast,0,2012-10-09 15:36:00
11:56 AM,57.0,53.1,87,30.18,10.0,NNE,6.9,-,N/A,,Overcast,20,2012-10-09 15:56:00
12:56 PM,57.0,54.0,89,30.16,9.0,Variable,6.9,-,N/A,,Overcast,0,2012-10-09 16:56:00
1:33 PM,57.2,53.6,88,30.15,2.5,Variable,4.6,-,0.00,Rain,Light Rain,0,2012-10-09 17:33:00
1:53 PM,57.2,53.6,88,30.14,3.0,Variable,4.6,-,0.01,,Overcast,0,2012-10-09 17:53:00
1:56 PM,57.0,54.0,89,30.14,4.0,Variable,4.6,-,0.01,,Overcast,0,2012-10-09 17:56:00
2:56 PM,57.0,54.0,89,30.14,4.0,Variable,5.8,-,0.00,,Overcast,0,2012-10-09 18:56:00
3:23 PM,57.2,53.6,88,30.13,4.0,NNE,8.1,-,N/A,,Overcast,30,2012-10-09 19:23:00
3:44 PM,57.2,53.6,88,30.13,10.0,Variable,5.8,-,N/A,,Overcast,0,2012-10-09 19:44:00
3:56 PM,57.0,53.1,87,30.13,10.0,Variable,4.6,-,N/A,,Overcast,0,2012-10-09 19:56:00
4:38 PM,57.2,53.6,88,30.12,10.0,Variable,4.6,-,N/A,,Overcast,0,2012-10-09 20:38:00
4:56 PM,57.0,53.1,87,30.12,10.0,Variable,4.6,-,N/A,,Overcast,0,2012-10-09 20:56:00
5:40 PM,57.2,53.6,88,30.12,10.0,Variable,3.5,-,N/A,,Overcast,0,2012-10-09 21:40:00
5:56 PM,57.0,53.1,87,30.12,10.0,NE,3.5,-,N/A,,Overcast,40,2012-10-09 21:56:00
6:03 PM,57.2,53.6,88,30.12,10.0,Variable,3.5,-,N/A,,Overcast,0,2012-10-09 22:03:00
6:56 PM,57.0,52.0,83,30.12,10.0,NNE,3.5,-,N/A,,Overcast,30,2012-10-09 22:56:00
7:56 PM,57.0,52.0,83,30.12,10.0,Variable,3.5,-,N/A,,Overcast,0,2012-10-09 23:56:00
8:46 PM,57.2,51.8,82,30.12,10.0,Variable,4.6,-,N/A,,Overcast,0,2012-10-10 00:46:00
8:56 PM,57.0,52.0,83,30.12,10.0,Variable,4.6,-,N/A,,Overcast,0,2012-10-10 00:56:00
9:38 PM,57.2,53.6,88,30.12,10.0,Variable,3.5,-,N/A,,Overcast,0,2012-10-10 01:38:00
9:56 PM,55.9,53.1,90,30.12,10.0,Variable,5.8,-,N/A,,Overcast,0,2012-10-10 01:56:00
10:56 PM,55.9,53.1,90,30.11,10.0,NNE,3.5,-,N/A,,Overcast,20,2012-10-10 02:56:00
11:34 PM,55.4,53.6,94,30.10,10.0,Calm,Calm,-,N/A,,Overcast,0,2012-10-10 03:34:00
11:56 PM,55.9,53.1,90,30.09,10.0,Variable,3.5,-,0.00,,Overcast,0,2012-10-10 03:56:00